Location: Echo Hill Outdoor School
(39.3621°N, 76.1137°W)
Time: 05:53:40
(UTC-05:00)

Tiangong 2 - Visible Passes

Search period start: 23 November 2017 00:00
Search period end: 03 December 2017 00:00
Orbit: 386 x 392 km, 42.8° (Epoch: 22 November)

Date Brightness Start Highest point End Pass type
(mag) Time Alt. Az. Time Alt. Az. Time Alt. Az.
25 Nov 4.2 05:43:10 10° S 05:44:48 13° SE 05:46:27 10° ESE visible
26 Nov 2.4 06:20:03 10° SW 06:23:05 42° SSE 06:26:09 10° E visible
27 Nov 3.2 05:22:52 13° SSW 05:24:59 25° SSE 05:27:40 10° E visible
28 Nov 4.4 04:28:08 12° ESE 04:28:08 12° ESE 04:28:45 10° ESE visible
28 Nov 1.2 06:00:29 12° WSW 06:03:23 76° SSE 06:06:36 10° ENE visible
29 Nov 2.2 05:05:31 43° SE 05:05:31 43° SE 05:08:16 10° E visible
30 Nov 1.0 05:42:42 39° W 05:43:44 69° NNW 05:46:55 10° ENE visible
01 Dec 3.6 04:47:24 21° ENE 04:47:24 21° ENE 04:48:39 10° ENE visible
01 Dec 1.7 06:19:43 12° WNW 06:22:26 43° N 06:25:31 10° ENE visible
02 Dec 1.6 05:24:20 48° N 05:24:20 48° N 05:27:11 10° ENE visible
